Showing default

CHECKMATE 7, 56166

Orbit data source: Space-Track

CHECKMATE 7, 56166 is a payload satellite owned by SDA (US) in LEO that was launched on Sun, 02 Apr 2023 UTC via an FALCON 9 launch vehicle from the Air Force Western Test Range (AFWTR). Payloads include a variety of satellites, spacecraft, and rockets equipped with specific instruments for various scientific and technological missions. These include communications satellites like Starlink; space stations such as the ISS; scientific satellites like the Hubble; Earth observation satellites from companies like Planet Labs, Umbra, and HawkEye 360; GPS; miniature CubeSats for education and research; and military/defense satellites.

Loading next visibility...
CHECKMATE 7 details
Identifier
56166, 2023-050E
Orbit
LEO
Last TLE update13 hours ago
Origin
Flag of USSDA (US)
ManufacturerYork Space Sys
MissionOperational Defense Communications
Bus & MotorS-CLASS, Unknown motor
Mass~300 kg wet, ~300 kg dry
Launch date (UTC)
2023-04-02 (2 years ago)
Launch vehicle
FALCON 9
Launch site
Air Force Western Test Range (AFWTR)
Object type
Payload
Rocket body
Debris
Shape & HBRBox + 1 Pan, 2 m
Radar Cross Section0.945 m², Medium (>0.1 m² and < 1m²)

Expand to show TLE details & history

TLE from 13 hours ago
0 CHECKMATE 7
1 56166U 23050E   25014.93507183  .00000078  00000-0  59689-4 0  9998
2 56166  80.9987 208.4866 0005833 271.1862  88.8626 13.84887066 90364
Epoch: 2025-01-14T22:26Z
Definitive object data (Epoch: 2025-01-14T22:26:30.206Z)
Latitude0.00002°
Longitude117.22611°
Altitude949.378 km
Speed7.377 km/s
True Right ascension13h 53m 56s
True Declination0° 00' 00"
Sunlit
Object was in daylight at TLE epoch
Visualization TLE readout
Latitude-67.56159°
Longitude-40.87404°
Altitude968.059 km
Speed7.369 km/s
Apparent Right ascension01h 29m 32s
Apparent Declination-56° 24' 19"
Sunlit
Object is in daylight
Visualization observer readout
Local Sidereal Time12:27:00
Azimuth206.656° SW
Elevation-70.593°
Doppler factor1
Orbital elements
Apogee altitude948.095 km
Perigee altitude939.553 km
Semi-major axis7,321.961 km
Eccentricity0.0005833
Inclination80.9987°
RAAN208.4866°
Arg. of periapsis271.1862°
True anomaly88.92943°
Mean anomaly88.8626°
Eccentric anomaly88.89601°
Mean motion3.46419 °/min
BSTAR0.000059689
Orbital period103.92 mins
Loading maneuver chart data...
Loading historical data...
Loading historical data...
Loading historical data...
Loading historical data...
Loading historical data...
Loading historical data...
Loading historical data...

CHECKMATE 7 Visibility forecast

Observer location: undefined°, undefined

Span
Click to sort rows by Start time (UTC) header in descending order
Start Az.
Max El. time (UTC)
Max El. Az.
Max El.
End time (UTC)
End Az.
9 mins2025-01-15 12:25:45.550Z136.361° SSE2025-01-15 12:30:45.550Z80.08° E21.407°2025-01-15 12:34:45.550Z38.19° NE
9 mins2025-01-15 14:10:45.550Z217.123° SW2025-01-15 14:14:45.550Z280.491° WNW36.831°2025-01-15 14:19:45.550Z354.954° N
8 mins2025-01-15 23:18:45.550Z26.796° NE2025-01-15 23:21:45.550Z61.917° ENE21.284°2025-01-15 23:26:45.550Z118.582° SE
10 mins2025-01-16 01:02:45.550Z336.502° NNW2025-01-16 01:07:45.550Z258.715° W37.688°2025-01-16 01:12:45.550Z194.387° SSW
|